Flag for U.S.A. Weather past 2 weeks in San Antonio, Texas, U.S.A.

Now
48 °F

Passing clouds.


Feels Like: 44 °F
Forecast: 42 / 72 °F
Wind: 8 mph from Northwest

Location: San Antonio International Airport

Current Time: Jan 25, 2015 at 11:22:13 PM

Latest Report: Jan 25, 2015 at 10:51 PM


Visibility: 10 mi

Pressure: 30.19 "Hg

Humidity: 63%

Dew point: 36 °F

Location of San AntonioLocation

Historic Weather in San Antonio — Graph

°F

San Antonio temperature yesterday

Maximum temperature yesterday: 63 °F (at 3:51 PM)
Minimum temperature yesterday: 34 °F (at 2:51 AM)
Average temperature yesterday: 47 °F

Past Weeks' High & Low Weather Summary

 TemperatureHumidityPressure
High81 °F (Jan 20, 2:51 PM)97% (Jan 11, 5:51 AM)30.45 "Hg (Jan 11, 5:51 AM)
Low34 °F (Jan 24, 2:51 AM)17% (Jan 18, 3:51 PM)29.82 "Hg (Jan 20, 3:51 PM)
Average50 °F71%30.16 "Hg
* Reported Jan 10 9:51 PM — Jan 25 9:51 PM, San Antonio, Weather by CustomWeather, © 2014

Note: Actual official high and low records may vary slightly from our data, if they occured in-between our weather recording intervals... More about our weather records

Advertising

San Antonio weather history for previous 24 hours

 ConditionsComfort  
Time TempWeatherWind HumidityBarometerVisibility
9:51 PM
Jan 25
50 °FPassing clouds.9 mph61%30.18 "Hg10 mi
8:51 PM52 °FPassing clouds.7 mph57%30.17 "Hg10 mi
7:51 PM53 °FPassing clouds.7 mph56%30.16 "Hg10 mi
6:51 PM58 °FPassing clouds.3 mph44%30.15 "Hg10 mi
5:51 PM64 °FPartly sunny.6 mph33%30.12 "Hg10 mi
4:51 PM70 °FPartly sunny.10 mph22%30.09 "Hg10 mi
3:51 PM73 °FPartly sunny.12 mph21%30.08 "Hg10 mi
2:51 PM73 °FPartly sunny.9 mph26%30.06 "Hg10 mi
1:51 PM71 °FPartly sunny.6 mph31%30.08 "Hg10 mi
12:51 PM70 °FPartly sunny.3 mph32%30.11 "Hg10 mi
11:51 AM66 °FPartly sunny.3 mph37%30.10 "Hg10 mi
10:51 AM64 °FPassing clouds.10 mph35%30.08 "Hg10 mi
9:51 AM58 °FPassing clouds.9 mph43%30.08 "Hg10 mi
8:51 AM49 °FPassing clouds.5 mph64%30.06 "Hg10 mi
7:51 AM39 °FPassing clouds.6 mph82%30.06 "Hg10 mi
6:51 AM38 °FPassing clouds.No wind83%30.03 "Hg10 mi
5:51 AM39 °FPassing clouds.5 mph89%30.01 "Hg10 mi
4:51 AM41 °FPassing clouds.3 mph86%30.02 "Hg10 mi
3:51 AM43 °FPassing clouds.3 mph82%30.04 "Hg10 mi
2:51 AM46 °FPassing clouds.3 mph79%30.04 "Hg10 mi
1:51 AM47 °FPassing clouds.No wind74%30.04 "Hg10 mi
12:51 AM47 °FPassing clouds.6 mph74%30.06 "Hg10 mi
11:51 PM
Jan 24
46 °FPassing clouds.3 mph79%30.08 "Hg10 mi
Weather by CustomWeather, © 2014

See weather overviewHow to use our weather pages